STARLINK-35861, 66355

Orbit data source: Space-Track

STARLINK-35861, 66355 is a payload satellite owned by SpaceX/Seattle (US) in LEO that was launched on Thu, 06 Nov 2025 UTC via an FALCON 9 launch vehicle from the Air Force Western Test Range (AFWTR). Payload-class satellites include a variety of spacecraft equipped with specific instruments for various scientific and technological missions. These include communications satellites like Starlink; space stations such as the ISS; scientific satellites like the Hubble; Earth observation satellites from companies like Planet Labs, Umbra, and HawkEye 360; GPS; miniature CubeSats for education and research; and military/defense satellites.

Loading next visibility...
Identifier
66355, 2025-254H
Orbit
LEO
Country
Flag of USUS
Related business
Manufacturer
SpaceX/Seattle
Mission
Operational Commercial Communications
Bus & Motor
STARLINK V2MO, Unknown motor
Mass
575 kg wet, ~530 kg dry
Launch date (UTC)
2025-11-06 (7 months ago)
Launch vehicle
FALCON 9
Launch site
Air Force Western Test Range (AFWTR)
Object type
Payload
Rocket body
Debris
Shape & HBR
Box + 2 Pan, 17.7 m
Radar Cross Section
36.964 m², Large (>1 m²)

Expand to show TLE details & history
Last TLE update: 1 day ago

TLE from 1 day ago
0 STARLINK-35861
1 66355U 25254H   26170.58811560  .00012963  00000-0  44899-3 0  9991
2 66355  53.1598 119.3693 0001115  79.6272 280.4854 15.30203283 34578
Epoch: 2026-06-19T14:06Z
TLE epoch observation values (Epoch: 2026-06-19T14:06:53.187Z)
Latitude
-0.00007°
Longitude
-0.16731°
Altitude
475.966 km
Speed
7.629 km/s
True Right ascension
07h 57m 28s
True Declination
0° 00' 00"
Sunlit
Object was in daylight at epoch
Visualization orbit readout
Latitude
Unknown
Longitude
Unknown
Altitude
Unknown
Speed
Unknown
Apparent Right ascension
Unknown
Apparent Declination
Unknown
Sunlit
N/A
Visualization observer readout
Local Sidereal Time
07:15:08
Azimuth
Unknown
Elevation
Unknown
Doppler factor
Unknown
Orbital elements
Apogee altitude
476.226 km
Perigee altitude
474.698 km
Semi-major axis
6,853.599 km
Eccentricity
0.00011
Inclination
53.1598°
RAAN
119.3693°
Arg. of periapsis
79.6272°
True anomaly
280.47284°
Mean anomaly
280.4854°
Eccentric anomaly
280.47912°
Mean motion
3.8253 °/min
Orbital period
94.11 mins
BSTAR
0.00044899
Loading maneuver chart data...
Computing Atmospheric mass density...
Loading historical data...
Loading historical data...
Loading historical data...
Loading historical data...
Loading historical data...
Loading historical data...
Loading historical data...

Documentation

Showing up to 5 results
|